Content
SEND FEEDBACK

Daily
Averages
Monthly
Summary
Slovakia

BRATISLAVA, SLOVAKIA


Home > Europe > Slovakia
Elevation: 426 feet     Latitude: 48 12N     Longitude: 017 12E

WEATHER
 
SELECT A DAY
Number of Records: 329,195;   Date Range: 7/1/96 - 11/27/14
 
SHARE

PRINT THIS DATA

[ ← Previous Day ]
WEATHER ALMANAC - JANUARY 23, 2013
[ Next Day → ]
[ °C ]   °F
Weather ElementAverageHighLow
Temperature27.1 °F32 °F (3:00 pm)23 °F (6:00 pm)
Dewpoint21.5 °F23 °F (9:00 am)19 °F (1:00 am)
Humidity78.3 %93 % (8:00 pm)59 % (1:00 am)
Barometer29.79 in29.88 in (7:00 pm)29.71 in (12:30 am)
Wind Speed4.2 mph10.4 mph (2:30 am)
Weather ElementAverage
Visibility3 mi
Wind DirectionSSW (185.9 °)

Weather ElementTotal
Precipitation---
Heating Degree Days37.5 (Base 65)
Averaged from 55 records on January 23, 2013
WEATHER CONDITIONS BREAKOUT
WIND DIRECTION BREAKOUT
WEATHER BY HOUR - JANUARY 23, 2013
[ °C ]   °F
Local TimeTemperatureDewpointHumidityBarometerVisibilityWind DirectionWind SpeedGust SpeedPrecipitationEventsConditions
12:30 AM28.4 °F19.4 °F69 %29.71 in5.6 miNNW (330°)5.8 mph
1:00 AM28.0 °F19.0 °F59 %29.76 in6.0 miNW (320°)8.9 mphMist
1:00 AM28.4 °F19.4 °F69 %29.71 in5.6 miNNW (330°)9.2 mphMostly Cloudy
1:30 AM28.4 °F19.4 °F69 %29.71 in5.6 miNW (320°)6.9 mphMostly Cloudy
2:00 AM26.6 °F19.4 °F74 %29.71 in5.6 miNW (310°)9.2 mphMostly Cloudy
2:30 AM26.6 °F19.4 °F74 %29.71 in5.0 miNW (320°)10.4 mphSnowLight Snow
3:00 AM26.6 °F19.4 °F74 %29.74 in3.7 miNNW (330°)5.8 mphSnowLight Snow
3:30 AM26.6 °F19.4 °F74 %29.74 in3.1 miNorth (360°)3.5 mphSnowLight Snow
4:00 AM26.0 °F20.0 °F71 %29.78 in2.0 miNW (310°)4.5 mphSnowLight Snow
4:00 AM26.6 °F19.4 °F74 %29.74 inNW (310°)4.6 mphSnowLight Snow
4:30 AM26.6 °F21.2 °F80 %29.74 in2.5 miNNW (330°)4.6 mphSnowLight Snow
5:00 AM26.6 °F21.2 °F80 %29.74 in1.6 miNW (310°)3.5 mphSnowLight Snow
5:30 AM26.6 °F21.2 °F80 %29.74 in1.9 miWest (280°)2.3 mphSnowLight Snow
6:00 AM26.6 °F21.2 °F80 %29.74 in1.7 miWest (260°)3.5 mphSnowLight Snow
6:30 AM26.6 °F21.2 °F80 %29.77 in1.9 miVariable2.3 mphSnowLight Snow
7:00 AM26.0 °F21.0 °F75 %29.81 in2.0 miSSW (210°)2.2 mphSnowLight Snow
7:00 AM26.6 °F21.2 °F80 %29.77 in1.9 miSSW (210°)2.3 mphSnowLight Snow
7:30 AM26.6 °F21.2 °F80 %29.77 in1.6 miSW (230°)2.3 mphSnowLight Snow
8:00 AM26.6 °F21.2 °F80 %29.77 in1.6 miWSW (240°)2.3 mphSnowLight Snow
8:30 AM26.6 °F21.2 °F80 %29.77 in1.1 miWSW (240°)2.3 mphSnowLight Snow
9:00 AM26.6 °F23.0 °F86 %29.80 in1.5 miSW (230°)4.6 mphSnowLight Snow
9:30 AM26.6 °F23.0 °F86 %29.80 in1.6 miSSW (210°)4.6 mphSnowLight Snow
10:00 AM27.0 °F22.0 °F74 %29.84 in2.0 miSSW (210°)4.5 mphSnowLight Snow
10:00 AM26.6 °F21.2 °F80 %29.80 in1.9 miSW (220°)5.8 mphSnowLight Snow
10:30 AM26.6 °F23.0 °F86 %29.80 in1.9 miSSW (210°)4.6 mphSnowLight Snow
11:00 AM28.4 °F23.0 °F80 %29.80 in2.5 miSSW (210°)4.6 mphMostly Cloudy
11:30 AM28.4 °F23.0 °F80 %29.80 in2.5 miSW (220°)3.5 mphMostly Cloudy
12:00 PM30.2 °F23.0 °F75 %29.80 in3.1 miSSW (210°)1.2 mphMostly Cloudy
12:30 PM30.2 °F23.0 °F75 %29.80 in3.1 miESE (120°)2.3 mphMostly Cloudy
1:00 PM31.0 °F22.0 °F60 %29.83 in4.0 mi°2.2 mphMist
1:00 PM30.2 °F23.0 °F75 %29.80 in3.7 miVariable1.2 mphMostly Cloudy
1:30 PM30.2 °F23.0 °F75 %29.80 in3.7 miWSW (240°)4.6 mphMostly Cloudy
2:00 PM30.2 °F23.0 °F75 %29.80 in3.7 miSW (230°)3.5 mphMostly Cloudy
2:30 PM30.2 °F23.0 °F75 %29.80 in3.7 miSW (230°)5.8 mphMostly Cloudy
3:00 PM32.0 °F23.0 °F69 %29.80 in3.7 miSW (230°)4.6 mphPartly Cloudy
3:30 PM30.2 °F23.0 °F75 %29.80 in4.3 miSW (220°)1.2 mph
4:00 PM28.0 °F21.0 °F65 %29.83 in4.0 miEast (100°)2.2 mphMist
4:00 PM28.4 °F21.2 °F74 %29.80 in4.3 miEast (90°)3.5 mph
4:30 PM26.6 °F19.4 °F74 %29.80 in3.7 miEast (100°)3.5 mph
5:00 PM26.6 °F21.2 °F80 %29.80 in3.7 miEast (80°)5.8 mphPartly Cloudy
5:30 PM24.8 °F21.2 °F86 %29.80 in3.1 miEast (90°)4.6 mph
6:00 PM23.0 °F19.4 °F86 %29.83 in2.8 miVariable2.3 mphMostly Cloudy
6:30 PM24.8 °F21.2 °F86 %29.83 in2.8 miSSE (150°)2.3 mphMostly Cloudy
7:00 PM23.0 °F20.0 °F82 %29.88 in2.0 miESE (110°)2.2 mphMist
7:00 PM23.0 °F19.4 °F86 %29.83 in2.2 miESE (110°)2.3 mphMostly Cloudy
7:30 PM24.8 °F21.2 °F86 %29.83 in2.2 miNNE (20°)2.3 mphMostly Cloudy
8:00 PM24.8 °F23.0 °F93 %29.83 inNNE (20°)3.5 mphOvercast
8:30 PM26.6 °F23.0 °F86 %29.83 in1.7 miNE (40°)3.5 mphOvercast
9:00 PM26.6 °F23.0 °F86 %29.83 in1.9 miNE (40°)4.6 mphOvercast
9:30 PM26.6 °F23.0 °F86 %29.83 inNE (50°)5.8 mphOvercast
10:00 PM27.0 °F23.0 °F80 %29.86 in2.0 miEast (80°)4.5 mphMist
10:00 PM26.6 °F23.0 °F86 %29.83 in2.2 miEast (80°)4.6 mphOvercast
10:30 PM26.6 °F23.0 °F86 %29.83 inESE (120°)4.6 mphSnowLight Snow Grains
11:00 PM26.6 °F23.0 °F86 %29.83 inESE (110°)6.9 mphSnowLight Snow Grains
11:30 PM26.6 °F23.0 °F86 %29.83 inESE (110°)5.8 mphSnowLight Snow Grains
Hourly data recorded from LZIB, located miles away from Bratislava, Slovakia







STORIES FROM OUR PARTNERS